Time,TemperatureF,DewpointF,PressureIn,WindDirection,WindDirectionDegrees,WindSpeedMPH,WindSpeedGustMPH,Humidity,HourlyPrecipIn,Conditions,Clouds,dailyrainin,SolarRadiationWatts/m^2,SoftwareType,DateUTC
2013-11-10 00:13:00,33.0,32.0,-100.00,NW,318,6.0,14.0,95,0.00,,,0.42,0.000000,,2013-11-10 06:13:00,
2013-11-10 00:22:00,33.0,32.0,-100.00,NW,318,6.0,14.0,95,0.00,,,0.42,0.000000,,2013-11-10 06:22:00,
2013-11-10 00:32:00,33.0,32.0,-100.00,NW,318,6.0,14.0,95,0.00,,,0.42,0.000000,,2013-11-10 06:32:00,
2013-11-10 01:12:00,32.0,31.0,-100.00,NW,325,4.0,11.0,97,0.00,,,0.42,0.000000,,2013-11-10 07:12:00,
2013-11-10 01:22:00,32.0,31.0,-100.00,NW,325,4.0,11.0,97,0.00,,,0.42,0.000000,,2013-11-10 07:22:00,
2013-11-10 01:32:00,32.0,31.0,-100.00,NW,325,4.0,11.0,97,0.00,,,0.42,0.000000,,2013-11-10 07:32:00,
2013-11-10 02:12:00,33.0,32.0,-100.00,NNW,332,7.0,15.0,96,0.00,,,0.42,0.000000,,2013-11-10 08:12:00,
2013-11-10 02:21:00,33.0,32.0,-100.00,NNW,332,7.0,15.0,96,0.00,,,0.42,0.000000,,2013-11-10 08:21:00,
2013-11-10 02:32:00,33.0,32.0,-100.00,NNW,332,7.0,15.0,96,0.00,,,0.42,0.000000,,2013-11-10 08:32:00,
2013-11-10 03:12:00,33.0,32.0,-100.00,NNW,339,7.0,12.0,96,0.00,,,0.42,0.000000,,2013-11-10 09:12:00,
2013-11-10 03:21:00,33.0,32.0,-100.00,NNW,339,7.0,12.0,96,0.00,,,0.42,0.000000,,2013-11-10 09:21:00,
2013-11-10 03:33:00,33.0,32.0,-100.00,NNW,339,7.0,12.0,96,0.00,,,0.42,0.000000,,2013-11-10 09:33:00,
2013-11-10 04:13:00,32.0,31.0,-100.00,NNW,345,7.0,15.0,97,0.00,,,0.42,0.000000,,2013-11-10 10:13:00,
2013-11-10 04:23:00,32.0,31.0,-100.00,NNW,345,7.0,15.0,97,0.00,,,0.42,0.000000,,2013-11-10 10:23:00,
2013-11-10 04:33:00,32.0,31.0,-100.00,NNW,345,7.0,15.0,97,0.00,,,0.42,0.000000,,2013-11-10 10:33:00,
2013-11-10 05:12:00,32.0,31.0,-100.00,NNW,342,8.0,16.0,95,0.00,,,0.42,0.000000,,2013-11-10 11:12:00,
2013-11-10 05:22:00,32.0,31.0,-100.00,NNW,342,8.0,16.0,95,0.00,,,0.42,0.000000,,2013-11-10 11:22:00,
2013-11-10 05:33:00,32.0,31.0,-100.00,NNW,342,8.0,16.0,95,0.00,,,0.42,0.000000,,2013-11-10 11:33:00,
2013-11-10 06:12:00,32.0,31.0,-100.00,NNW,341,7.0,16.0,95,0.00,,,0.42,0.000000,,2013-11-10 12:12:00,
2013-11-10 06:21:00,32.0,31.0,-100.00,NNW,341,7.0,16.0,95,0.00,,,0.42,0.000000,,2013-11-10 12:21:00,
2013-11-10 06:31:00,32.0,31.0,-100.00,NNW,341,7.0,16.0,95,0.00,,,0.42,0.000000,,2013-11-10 12:31:00,
2013-11-10 09:11:00,32.0,29.0,-100.00,NW,323,4.0,9.0,90,-99.99,,,0.36,23.000000,,2013-11-10 15:11:00,
2013-11-10 09:22:00,32.0,29.0,-100.00,NW,323,4.0,9.0,90,-99.99,,,0.36,23.000000,,2013-11-10 15:22:00,
2013-11-10 09:33:00,32.0,29.0,-100.00,NW,323,4.0,9.0,90,-99.99,,,0.36,23.000000,,2013-11-10 15:33:00,
2013-11-10 10:12:00,33.0,30.0,-100.00,NW,322,1.0,7.0,88,0.00,,,0.28,52.000000,,2013-11-10 16:12:00,
2013-11-10 10:23:00,33.0,30.0,-100.00,NW,322,1.0,7.0,88,0.00,,,0.28,52.000000,,2013-11-10 16:23:00,
2013-11-10 10:33:00,33.0,30.0,-100.00,NW,322,1.0,7.0,88,0.00,,,0.28,52.000000,,2013-11-10 16:33:00,
2013-11-10 11:12:00,35.0,30.0,-100.00,NW,307,3.0,7.0,83,0.02,,,0.23,132.000000,,2013-11-10 17:12:00,
2013-11-10 11:23:00,35.0,30.0,-100.00,NW,307,3.0,7.0,83,0.02,,,0.23,132.000000,,2013-11-10 17:23:00,
2013-11-10 11:34:00,35.0,30.0,-100.00,NW,307,3.0,7.0,83,0.02,,,0.23,132.000000,,2013-11-10 17:34:00,
2013-11-10 12:13:00,33.0,28.0,-100.00,WNW,300,4.0,11.0,81,0.01,,,0.19,129.000000,,2013-11-10 18:13:00,
2013-11-10 12:24:00,33.0,28.0,-100.00,WNW,300,4.0,11.0,81,0.01,,,0.19,129.000000,,2013-11-10 18:24:00,
2013-11-10 12:32:00,33.0,28.0,-100.00,WNW,300,4.0,11.0,81,0.01,,,0.19,129.000000,,2013-11-10 18:32:00,
2013-11-10 13:11:00,34.0,28.0,-100.00,West,277,5.0,10.0,77,0.02,,,0.17,120.000000,,2013-11-10 19:11:00,
2013-11-10 13:22:00,34.0,28.0,-100.00,West,277,5.0,10.0,77,0.02,,,0.17,120.000000,,2013-11-10 19:22:00,
2013-11-10 13:32:00,34.0,28.0,-100.00,West,277,5.0,10.0,77,0.02,,,0.17,120.000000,,2013-11-10 19:32:00,
2013-11-10 14:11:00,37.0,28.0,-100.00,SW,236,6.0,15.0,71,0.02,,,0.17,243.000000,,2013-11-10 20:11:00,
2013-11-10 14:22:00,37.0,28.0,-100.00,SW,236,6.0,15.0,71,0.02,,,0.17,243.000000,,2013-11-10 20:22:00,
2013-11-10 14:32:00,37.0,28.0,-100.00,SW,236,6.0,15.0,71,0.02,,,0.17,243.000000,,2013-11-10 20:32:00,
2013-11-10 15:11:00,38.0,28.0,-100.00,WSW,241,6.0,12.0,66,0.05,,,0.20,383.000000,,2013-11-10 21:11:00,
2013-11-10 15:22:00,38.0,28.0,-100.00,WSW,241,6.0,12.0,66,0.05,,,0.20,383.000000,,2013-11-10 21:22:00,
2013-11-10 15:33:00,38.0,28.0,-100.00,WSW,241,6.0,12.0,66,0.05,,,0.20,383.000000,,2013-11-10 21:33:00,
2013-11-10 16:13:00,35.0,27.0,-100.00,SW,232,6.0,12.0,71,0.02,,,0.19,147.000000,,2013-11-10 22:13:00,
2013-11-10 16:23:00,35.0,27.0,-100.00,SW,232,6.0,12.0,71,0.02,,,0.19,147.000000,,2013-11-10 22:23:00,
2013-11-10 16:34:00,35.0,27.0,-100.00,SW,232,6.0,12.0,71,0.02,,,0.19,147.000000,,2013-11-10 22:34:00,
2013-11-10 17:12:00,32.0,28.0,-100.00,SSW,213,3.0,6.0,85,0.00,,,0.18,27.000000,,2013-11-10 23:12:00,
2013-11-10 17:22:00,32.0,28.0,-100.00,SSW,213,3.0,6.0,85,0.00,,,0.18,27.000000,,2013-11-10 23:22:00,
2013-11-10 17:34:00,32.0,28.0,-100.00,SSW,213,3.0,6.0,85,0.00,,,0.18,27.000000,,2013-11-10 23:34:00,
2013-11-10 18:11:00,30.0,28.0,-100.00,SW,226,2.0,5.0,91,0.00,,,0.17,1.000000,,2013-11-11 00:11:00,
2013-11-10 18:22:00,30.0,28.0,-100.00,SW,226,2.0,5.0,91,0.00,,,0.17,1.000000,,2013-11-11 00:22:00,
2013-11-10 18:32:00,30.0,28.0,-100.00,SW,226,2.0,5.0,91,0.00,,,0.17,1.000000,,2013-11-11 00:32:00,
2013-11-10 19:11:00,31.0,27.0,-100.00,SSW,201,3.0,8.0,86,0.00,,,0.16,0.000000,,2013-11-11 01:11:00,
2013-11-10 19:22:00,31.0,27.0,-100.00,SSW,201,3.0,8.0,86,0.00,,,0.16,0.000000,,2013-11-11 01:22:00,
2013-11-10 19:32:00,31.0,27.0,-100.00,SSW,201,3.0,8.0,86,0.00,,,0.16,0.000000,,2013-11-11 01:32:00,
2013-11-10 20:11:00,34.0,27.0,-100.00,WSW,237,5.0,11.0,75,0.00,,,0.15,0.000000,,2013-11-11 02:11:00,
2013-11-10 20:21:00,34.0,27.0,-100.00,WSW,237,5.0,11.0,75,0.00,,,0.15,0.000000,,2013-11-11 02:21:00,
2013-11-10 20:32:00,34.0,27.0,-100.00,WSW,237,5.0,11.0,75,0.00,,,0.15,0.000000,,2013-11-11 02:32:00,
2013-11-10 21:12:00,33.0,27.0,-100.00,WSW,241,4.0,8.0,78,0.00,,,0.14,0.000000,,2013-11-11 03:12:00,
2013-11-10 21:22:00,33.0,27.0,-100.00,WSW,241,4.0,8.0,78,0.00,,,0.14,0.000000,,2013-11-11 03:22:00,
2013-11-10 21:34:00,33.0,27.0,-100.00,WSW,241,4.0,8.0,78,0.00,,,0.14,0.000000,,2013-11-11 03:34:00,
2013-11-10 22:14:00,35.0,27.0,-100.00,WSW,242,6.0,13.0,73,0.00,,,0.14,0.000000,,2013-11-11 04:14:00,
2013-11-10 22:24:00,35.0,27.0,-100.00,WSW,242,6.0,13.0,73,0.00,,,0.14,0.000000,,2013-11-11 04:24:00,
2013-11-10 22:34:00,35.0,27.0,-100.00,WSW,242,6.0,13.0,73,0.00,,,0.14,0.000000,,2013-11-11 04:34:00,
2013-11-10 23:13:00,32.0,30.0,-100.00,WSW,244,5.0,10.0,94,0.00,,,0.14,0.000000,,2013-11-11 05:13:00,
2013-11-10 23:23:00,32.0,30.0,-100.00,WSW,244,5.0,10.0,94,0.00,,,0.14,0.000000,,2013-11-11 05:23:00,
2013-11-10 23:34:00,32.0,30.0,-100.00,WSW,244,5.0,10.0,94,0.00,,,0.14,0.000000,,2013-11-11 05:34:00,